Regional Weather Roundup
Issued by NWS

Home | Current Version | Previous Version | Graphics & Text | Print | Product List | Glossary On
Versions: 1 2 3 4 5 6 7 8 9 10 11 12 13 14 15 16 17 18 19 20 21 22 23 24 25 26 27
000
ASUS45 KCYS 170510
RWRWY

WYOMING REGIONAL WEATHER ROUNDUP
NATIONAL WEATHER SERVICE CHEYENNE WY
1000 PM MST TUE JAN 16 2018

NOTE:  "FAIR" INDICATES FEW OR NO CLOUDS BELOW 12,000 FEET
WITH NO SIGNIFICANT WEATHER AND/OR OBSTRUCTIONS TO VISIBILITY.

WYZ001-170600-
YELLOWSTONE NATIONAL PARK

CITY           SKY/WX    TMP DP  RH WIND       PRES   REMARKS
LK YELLOWSTONE   N/A      1  -2  87 CALM      30.34S
W YELLOWSTONE  NOT AVBL

$$
WYZ002>013-054>058-071-098>099-170600-
NORTHERN WYOMING

CITY           SKY/WX    TMP DP  RH WIND       PRES   REMARKS
JACKSON        MOCLDY     4   1  88 NE5       30.37R WCI  -5
CODY           FAIR      13   9  84 CALM      30.19R
GREYBULL       FAIR       0  -4  83 NW5       30.25R WCI -10
WORLAND        FAIR       3   0  87 S7        30.22R WCI  -9
SHERIDAN       FAIR       8   1  73 S8        30.15S WCI  -4
BUFFALO        FAIR      31   3  30 NW15      30.12R WCI  20
GILLETTE         N/A    N/A N/A N/A MISG      30.15S
HULETT         FAIR      27   0  31 CALM      30.16S
NEWCASTLE      FAIR      10   0  61 CALM      30.23S

$$
WYZ014>020-022>026-101>103-170600-
CENTRAL WYOMING

CITY           SKY/WX    TMP DP  RH WIND       PRES   REMARKS
BIG PINEY      FAIR       6   3  87 NE5       30.30R WCI  -3
PINEDALE       FAIR       3   0  85 W3        30.31R
DUBOIS         FAIR      30  10  43 NW16      30.22R WCI  19
LANDER         FAIR      16  12  84 CALM      30.21S
RIVERTON       FAIR      10   5  80 CALM      30.23S
CASPER         FAIR      30   4  33 SW17      30.18S WCI  18
DOUGLAS        FAIR       9   4  80 CALM      30.20F

$$
WYZ021-027>030-104>119-170600-
SOUTHERN WYOMING

CITY           SKY/WX    TMP DP  RH WIND       PRES   REMARKS
EVANSTON       CLOUDY    28  16  60 S5        30.31S WCI  23
FORT BRIDGER   FAIR      33  18  54 SW12      30.32S WCI  24
ROCK SPRINGS   FAIR      20   6  55 SW7       30.29S WCI  11
DIXON            N/A     13   5  70 SE7       30.35S WCI   3
RAWLINS        FAIR      23  -1  35 SW10      30.27R WCI  12
SARATOGA       FAIR      12   1  62 CALM      30.28R
LARAMIE        FAIR      11  -4  51 CALM      30.21S
CHEYENNE       FAIR      16  10  77 SW8       30.20S WCI   5
TORRINGTON     FAIR       9   6  88 NW5       30.23F WCI   1

$$




USA.gov is the U.S. government's official web portal to all federal, state and local government web resources and services.